• In India
  • List of Countries
  • For 7 days
  • Water Temperature
  • Satellite Maps
  • Weather Map
  • Weather Widgets
  • user-avatar
    Login

    Hourly Weather Drezdenko

    Today, 13 December, Wednesday

    Time Temperature Precipitation Wind Pressure Humidity
    00:00 0°C° 0 mm 5 mps 756 mmHg 84%
    01:00 -1°C° 0 mm 4 mps 756 mmHg 86%
    02:00 -1°C° 0 mm 4 mps 757 mmHg 88%
    03:00 -1°C° 0 mm 4 mps 757 mmHg 89%
    04:00 -1°C° 0 mm 4 mps 757 mmHg 90%
    05:00 -1°C° 0 mm 4 mps 757 mmHg 90%
    06:00 -1°C° 0 mm 4 mps 757 mmHg 89%
    07:00 -1°C° 0 mm 4 mps 758 mmHg 88%
    08:00 -1°C° 0 mm 4 mps 757 mmHg 86%
    09:00 -1°C° 0 mm 4 mps 757 mmHg 85%
    10:00 -1°C° 0 mm 5 mps 757 mmHg 83%
    11:00 0°C° 0 mm 5 mps 756 mmHg 79%
    12:00 0°C° 0 mm 5 mps 756 mmHg 75%
    13:00 +1°C° 0 mm 6 mps 755 mmHg 71%
    14:00 0°C° 0 mm 5 mps 754 mmHg 72%
    15:00 0°C° 0 mm 5 mps 754 mmHg 73%
    16:00 0°C° 0 mm 5 mps 753 mmHg 75%
    17:00 -1°C° 0 mm 6 mps 752 mmHg 73%
    18:00 -1°C° 0 mm 6 mps 751 mmHg 72%
    19:00 -1°C° 0 mm 7 mps 750 mmHg 70%
    20:00 -1°C° 0.3 mm 7 mps 749 mmHg 71%
    21:00 -1°C° 0.3 mm 7 mps 748 mmHg 72%
    22:00 -1°C° 0.3 mm 7 mps 747 mmHg 73%
    23:00 -1°C° 0.4 mm 7 mps 746 mmHg 74%

    Tomorrow, 14 December, Thursday

    Time Temperature Precipitation Wind Pressure Humidity
    00:00 -1°C° 0.4 mm 7 mps 745 mmHg 75%
    01:00 +1°C° 0.4 mm 6 mps 744 mmHg 76%
    02:00 0°C° 0.1 mm 7 mps 742 mmHg 76%
    03:00 0°C° 0.1 mm 7 mps 741 mmHg 76%
    04:00 0°C° 0.1 mm 7 mps 739 mmHg 75%
    05:00 +2°C° 0.8 mm 7 mps 739 mmHg 78%
    06:00 +2°C° 0.8 mm 7 mps 739 mmHg 81%
    07:00 +3°C° 0.8 mm 7 mps 739 mmHg 83%
    08:00 +3°C° 0 mm 7 mps 739 mmHg 82%
    09:00 +2°C° 0 mm 6 mps 739 mmHg 81%
    10:00 +2°C° 0 mm 6 mps 739 mmHg 80%
    11:00 +2°C° 0.3 mm 6 mps 739 mmHg 78%
    12:00 +2°C° 0.3 mm 6 mps 739 mmHg 76%
    13:00 0°C° 0.3 mm 7 mps 740 mmHg 74%
    14:00 0°C° 0.4 mm 7 mps 740 mmHg 76%
    15:00 0°C° 0.4 mm 7 mps 741 mmHg 78%
    16:00 0°C° 0.4 mm 7 mps 742 mmHg 80%
    17:00 +1°C° 0.1 mm 6 mps 742 mmHg 79%
    18:00 -1°C° 0.1 mm 6 mps 742 mmHg 79%
    19:00 0°C° 0.1 mm 5 mps 743 mmHg 79%
    20:00 0°C° 0 mm 5 mps 743 mmHg 80%
    21:00 0°C° 0 mm 5 mps 742 mmHg 82%
    22:00 -1°C° 0 mm 4 mps 742 mmHg 83%
    23:00 -1°C° 0 mm 4 mps 742 mmHg 84%

    Day after tomorrow, 15 December, Friday

    Time Temperature Precipitation Wind Pressure Humidity
    00:00 -1°C° 0 mm 4 mps 742 mmHg 86%
    01:00 -1°C° 0 mm 4 mps 742 mmHg 87%
    02:00 0°C° 0 mm 3 mps 741 mmHg 89%
    03:00 -1°C° 0 mm 3 mps 741 mmHg 90%
    04:00 -1°C° 0 mm 2 mps 740 mmHg 92%
    05:00 -1°C° 0.4 mm 2 mps 740 mmHg 92%
    06:00 +1°C° 0.4 mm 2 mps 739 mmHg 92%
    07:00 +1°C° 0.4 mm 2 mps 739 mmHg 92%
    08:00 0°C° 1.2 mm 3 mps 739 mmHg 92%
    09:00 +1°C° 1.2 mm 3 mps 740 mmHg 92%
    10:00 0°C° 1.2 mm 4 mps 740 mmHg 92%
    11:00 0°C° 0.6 mm 4 mps 740 mmHg 90%
    12:00 0°C° 0.6 mm 5 mps 741 mmHg 89%
    13:00 -1°C° 0.6 mm 6 mps 741 mmHg 87%
    14:00 0°C° 0.1 mm 5 mps 742 mmHg 88%
    15:00 0°C° 0.1 mm 5 mps 743 mmHg 89%
    16:00 0°C° 0.1 mm 5 mps 744 mmHg 90%
    17:00 0°C° 0 mm 4 mps 744 mmHg 90%
    18:00 0°C° 0 mm 4 mps 745 mmHg 90%
    19:00 0°C° 0 mm 4 mps 745 mmHg 90%
    20:00 -1°C° 0 mm 4 mps 746 mmHg 90%
    21:00 -1°C° 0 mm 4 mps 746 mmHg 90%
    22:00 -2°C° 0 mm 4 mps 746 mmHg 91%
    23:00 -2°C° 0 mm 4 mps 746 mmHg 91%

    16 December, Saturday

    Time Temperature Precipitation Wind Pressure Humidity
    00:00 -1°C° 0 mm 3 mps 746 mmHg 92%
    01:00 -2°C° 0 mm 3 mps 746 mmHg 93%
    02:00 -2°C° 0 mm 3 mps 746 mmHg 93%
    03:00 -2°C° 0 mm 3 mps 746 mmHg 93%
    04:00 -2°C° 0 mm 2 mps 746 mmHg 93%
    05:00 -2°C° 0 mm 2 mps 746 mmHg 94%
    06:00 -2°C° 0 mm 2 mps 747 mmHg 94%
    07:00 -2°C° 0 mm 2 mps 747 mmHg 95%
    08:00 -2°C° 0 mm 3 mps 747 mmHg 94%
    09:00 -1°C° 0 mm 3 mps 748 mmHg 94%
    10:00 -1°C° 0 mm 3 mps 748 mmHg 94%
    11:00 -1°C° 0 mm 4 mps 749 mmHg 93%
    12:00 -1°C° 0 mm 4 mps 749 mmHg 92%
    13:00 -1°C° 0 mm 5 mps 749 mmHg 91%
    14:00 0°C° 0 mm 5 mps 750 mmHg 90%
    15:00 0°C° 0 mm 5 mps 750 mmHg 89%
    16:00 0°C° 0 mm 5 mps 751 mmHg 88%
    17:00 -1°C° 0 mm 4 mps 751 mmHg 88%
    18:00 -1°C° 0 mm 4 mps 752 mmHg 88%
    19:00 -1°C° 0 mm 4 mps 752 mmHg 89%
    20:00 -2°C° 0 mm 4 mps 753 mmHg 89%
    21:00 -2°C° 0 mm 4 mps 753 mmHg 90%
    22:00 -3°C° 0 mm 4 mps 754 mmHg 91%
    23:00 -3°C° 0 mm 4 mps 754 mmHg 92%

    17 December, Sunday

    Time Temperature Precipitation Wind Pressure Humidity
    00:00 -3°C° 0 mm 4 mps 755 mmHg 93%
    01:00 -3°C° 0 mm 4 mps 755 mmHg 93%
    02:00 -2°C° 0.1 mm 4 mps 755 mmHg 93%
    03:00 -2°C° 0.1 mm 4 mps 756 mmHg 93%
    04:00 -2°C° 0.1 mm 4 mps 756 mmHg 93%
    05:00 -2°C° 0.1 mm 4 mps 757 mmHg 92%
    06:00 -2°C° 0.1 mm 4 mps 758 mmHg 91%
    07:00 -2°C° 0.1 mm 4 mps 758 mmHg 91%
    08:00 -2°C° 0 mm 4 mps 759 mmHg 90%
    09:00 -2°C° 0 mm 4 mps 760 mmHg 90%
    10:00 -2°C° 0 mm 4 mps 761 mmHg 89%
    11:00 -1°C° 0 mm 4 mps 761 mmHg 87%
    12:00 -1°C° 0 mm 4 mps 762 mmHg 86%
    13:00 -1°C° 0 mm 4 mps 762 mmHg 84%
    14:00 0°C° 0 mm 3 mps 763 mmHg 86%
    15:00 -1°C° 0 mm 3 mps 763 mmHg 88%
    16:00 -1°C° 0 mm 3 mps 764 mmHg 89%
    17:00 -2°C° 0 mm 3 mps 764 mmHg 90%
    18:00 -2°C° 0 mm 2 mps 765 mmHg 90%
    19:00 -2°C° 0 mm 2 mps 766 mmHg 91%
    20:00 -3°C° 0 mm 2 mps 766 mmHg 91%
    21:00 -3°C° 0 mm 2 mps 766 mmHg 92%
    22:00 -3°C° 0 mm 2 mps 767 mmHg 92%
    23:00 -3°C° 0 mm 2 mps 767 mmHg 93%

    18 December, Monday

    Time Temperature Precipitation Wind Pressure Humidity
    00:00 -3°C° 0 mm 2 mps 767 mmHg 93%
    01:00 -3°C° 0 mm 2 mps 767 mmHg 94%
    02:00 -3°C° 0 mm 2 mps 767 mmHg 94%
    03:00 -3°C° 0 mm 2 mps 767 mmHg 95%
    04:00 -3°C° 0 mm 2 mps 767 mmHg 95%
    05:00 -3°C° 0 mm 2 mps 767 mmHg 95%
    06:00 -3°C° 0 mm 2 mps 767 mmHg 95%
    07:00 -4°C° 0 mm 2 mps 767 mmHg 95%
    08:00 -3°C° 0 mm 2 mps 767 mmHg 94%
    09:00 -2°C° 0 mm 2 mps 767 mmHg 93%
    10:00 -2°C° 0 mm 3 mps 767 mmHg 93%
    11:00 -1°C° 0 mm 3 mps 767 mmHg 92%
    12:00 -1°C° 0 mm 3 mps 767 mmHg 92%
    13:00 0°C° 0 mm 3 mps 766 mmHg 91%
    14:00 0°C° 0 mm 3 mps 766 mmHg 92%
    15:00 0°C° 0 mm 3 mps 766 mmHg 92%
    16:00 0°C° 0 mm 3 mps 766 mmHg 93%
    17:00 -1°C° 0 mm 3 mps 766 mmHg 93%
    18:00 -1°C° 0 mm 3 mps 766 mmHg 92%
    19:00 -1°C° 0 mm 2 mps 766 mmHg 92%
    20:00 -1°C° 0 mm 2 mps 766 mmHg 92%
    21:00 -1°C° 0 mm 2 mps 766 mmHg 93%
    22:00 -2°C° 0 mm 2 mps 766 mmHg 93%
    23:00 -2°C° 0 mm 2 mps 766 mmHg 94%
    Show more